Simultaneous Nadir Overpasses (SNOs) Predictions

Prediction of SNOs between GOES-17 and METOP-C Satellite Orbit:

Table of predicted SNOs for the next 14.0 days since TLE Epoch: 2/26/2022
Index Date Time (GOES-17) GOES-17 Lat,Lon METOP-C Lat,Lon Distance(km) Time Diff (sec)
1 02/27/2022 06:48:41 -0.03,-137.20 -0.40,-138.91 195.03 80
2 02/28/2022 06:25:22 -0.03,-137.20 0.68,-133.91 373.81 80
3 03/01/2022 18:46:54 0.03,-137.20 0.34,-138.47 145.46 80
4 03/02/2022 18:23:36 0.03,-137.20 -0.80,-133.49 423.29 80
5 03/04/2022 06:45:16 -0.03,-137.19 -0.26,-138.08 102.00 80
6 03/05/2022 06:21:58 -0.03,-137.19 0.89,-133.09 466.65 80
7 03/06/2022 18:43:30 0.03,-137.19 0.16,-137.65 53.39 80
8 03/09/2022 06:41:52 -0.02,-137.16 -0.06,-137.26 11.42 80
9 03/11/2022 18:40:06 0.02,-137.14 -0.03,-136.83 34.83 80
